PICSAT (43132 NORAD) Tracking and Keplerian Element Data

This shows tracking and keplerian element data for the satellite.

Feedback or suggestion? Click here.




ElementValue
Catalog43132
NamePICSAT
Epoch Orbit20603
Epoch Day269.10071706
Epoch Year2021
RAAN342.7324
Inclination97.4014
Eccentricity0.0008213
Argument of Perigee203.5243
Mean Anonmoly156.5621
Mean Motion15.2633497
Decay Rate4.525E-05
L11 43132U 18004X 21269.10071706 .00004525 00000-0 17691-3 0 9991
L22 43132 97.4014 342.7324 0008213 203.5243 156.5621 15.26334970206035

Live tracking and technical data element details for PICSAT (NORAD 43132). PICSAT can be tracked NOW for your location showing map with azimuth and elevation plus other details from your city location.

Track the satellite on the map from your city or location and see movement details for azimuth, elevation, latitude, longitude, range, height, and movement on the map or in text.







IsCatalogInMostPopularTable: catalog: 43132, numindb: 827
Update: records affected: 1



GetName: 43132 PICSAT

Hit Count: updated at: Mon, 27 Sep 2021 00:07:59 GMT